| time (UTC) | temp C | wind direction | speed KPH | gust KPH | rain 1hr cm | rain 24hr cm | rain mn cm | humidity % | barometer mb |
| 20260504081542 | 7 | 132 | 0.0 | 3.2 | 0.00 | 0.00 | 0.00 | 83 | 1016.5 |
| 20260504081024 | 7 | 0 | 0.0 | 0.0 | 0.00 | 0.00 | 0.00 | 83 | 1016.5 |
| 20260504080521 | 7 | 0 | 0.0 | 3.2 | 0.00 | 0.00 | 0.00 | 83 | 1016.4 |
| 20260504050522 | 9 | 130 | 0.0 | 3.2 | 0.00 | 0.00 | 0.00 | 78 | 1017.5 |
| 20260504045521 | 10 | 0 | 0.0 | 3.2 | 0.00 | 0.00 | 0.00 | 78 | 1017.6 |
| 20260504045021 | 10 | 0 | 0.0 | 1.6 | 0.00 | 0.00 | 0.00 | 78 | 1017.6 |
| 20260504044537 | 10 | 117 | 1.6 | 3.2 | 0.00 | 0.00 | 0.00 | 78 | 1017.5 |
| 20260504044021 | 10 | 119 | 1.6 | 3.2 | 0.00 | 0.00 | 0.00 | 77 | 1017.6 |
| 20260504043521 | 10 | 110 | 0.0 | 3.2 | 0.00 | 0.00 | 0.00 | 76 | 1017.7 |
| 20260504043041 | 10 | 130 | 1.6 | 3.2 | 0.00 | 0.00 | 0.00 | 76 | 1017.6 |
| 20260504042522 | 10 | 0 | 0.0 | 3.2 | 0.00 | 0.00 | 0.00 | 75 | 1017.7 |
| 20260504042022 | 10 | 0 | 0.0 | 3.2 | 0.00 | 0.00 | 0.00 | 74 | 1017.7 |
| 20260504041546 | 10 | 129 | 0.0 | 3.2 | 0.00 | 0.00 | 0.00 | 73 | 1017.8 |
| 20260504041021 | 11 | 0 | 0.0 | 0.0 | 0.00 | 0.00 | 0.00 | 72 | 1017.7 |
| 20260504040523 | 11 | 0 | 0.0 | 3.2 | 0.00 | 0.00 | 0.00 | 73 | 1017.7 |
| 20260504040047 | 11 | 0 | 0.0 | 3.2 | 0.00 | 0.00 | 0.00 | 73 | 1017.6 |
| 20260504035523 | 11 | 0 | 0.0 | 3.2 | 0.00 | 0.00 | 0.00 | 73 | 1017.7 |
| 20260504035024 | 11 | 0 | 0.0 | 3.2 | 0.00 | 0.00 | 0.00 | 73 | 1017.7 |
| 20260504034540 | 11 | 132 | 1.6 | 6.4 | 0.00 | 0.00 | 0.00 | 73 | 1017.6 |
| 20260504034027 | 11 | 121 | 1.6 | 6.4 | 0.00 | 0.00 | 0.00 | 73 | 1017.6 |
| 20260504033523 | 11 | 121 | 3.2 | 4.8 | 0.00 | 0.00 | 0.00 | 73 | 1017.5 |
| 20260504033042 | 11 | 103 | 1.6 | 4.8 | 0.00 | 0.00 | 0.00 | 72 | 1017.7 |
| 20260504032523 | 11 | 116 | 1.6 | 4.8 | 0.00 | 0.00 | 0.00 | 72 | 1017.7 |
| 20260504032021 | 11 | 117 | 0.0 | 3.2 | 0.00 | 0.00 | 0.00 | 70 | 1017.7 |
| 20260504031550 | 12 | 0 | 0.0 | 3.2 | 0.00 | 0.00 | 0.00 | 70 | 1017.7 |
| 20260504031021 | 12 | 169 | 0.0 | 3.2 | 0.00 | 0.00 | 0.00 | 70 | 1017.7 |
| 20260504030521 | 12 | 244 | 0.0 | 3.2 | 0.00 | 0.00 | 0.00 | 70 | 1017.6 |
| 20260504030045 | 12 | 285 | 0.0 | 3.2 | 0.00 | 0.00 | 0.00 | 70 | 1017.4 |
| 20260504025521 | 12 | 225 | 0.0 | 4.8 | 0.00 | 0.00 | 0.00 | 70 | 1017.3 |
| 20260504025020 | 12 | 184 | 1.6 | 4.8 | 0.00 | 0.00 | 0.00 | 70 | 1017.2 |
| 20260504024544 | 12 | 107 | 1.6 | 4.8 | 0.00 | 0.00 | 0.00 | 70 | 1017.2 |
| 20260504024021 | 12 | 138 | 1.6 | 6.4 | 0.00 | 0.00 | 0.00 | 69 | 1017.2 |
| 20260504023523 | 12 | 103 | 3.2 | 6.4 | 0.00 | 0.00 | 0.00 | 69 | 1017.2 |
| 20260504023041 | 12 | 118 | 4.8 | 6.4 | 0.00 | 0.00 | 0.00 | 70 | 1017.3 |
| 20260504022524 | 12 | 106 | 1.6 | 4.8 | 0.00 | 0.00 | 0.00 | 70 | 1017.2 |
| 20260504022024 | 12 | 112 | 1.6 | 3.2 | 0.00 | 0.00 | 0.00 | 69 | 1017.4 |
| 20260504021537 | 12 | 121 | 1.6 | 3.2 | 0.00 | 0.00 | 0.00 | 69 | 1017.2 |
| 20260504021023 | 13 | 119 | 0.0 | 3.2 | 0.00 | 0.00 | 0.00 | 68 | 1017.2 |
| 20260504020520 | 13 | 128 | 1.6 | 3.2 | 0.00 | 0.00 | 0.00 | 68 | 1017.1 |
| 20260504020038 | 13 | 130 | 1.6 | 3.2 | 0.00 | 0.00 | 0.00 | 67 | 1017.1 |
| 20260504015521 | 13 | 121 | 0.0 | 3.2 | 0.00 | 0.00 | 0.00 | 66 | 1017.1 |
| 20260504015021 | 13 | 130 | 0.0 | 3.2 | 0.00 | 0.00 | 0.00 | 64 | 1017.1 |
| 20260504014545 | 14 | 128 | 0.0 | 3.2 | 0.00 | 0.00 | 0.00 | 63 | 1017.1 |
| 20260504014022 | 14 | 152 | 0.0 | 4.8 | 0.00 | 0.00 | 0.00 | 62 | 1017.0 |
| 20260504013522 | 15 | 162 | 1.6 | 4.8 | 0.00 | 0.00 | 0.00 | 61 | 1017.0 |
| 20260504013046 | 15 | 136 | 1.6 | 4.8 | 0.00 | 0.00 | 0.00 | 60 | 1017.0 |
| 20260504012521 | 15 | 129 | 1.6 | 4.8 | 0.00 | 0.00 | 0.00 | 59 | 1016.9 |
| 20260504012024 | 15 | 105 | 1.6 | 4.8 | 0.00 | 0.00 | 0.00 | 58 | 1016.9 |
| 20260504011542 | 15 | 94 | 3.2 | 4.8 | 0.00 | 0.00 | 0.00 | 57 | 1016.7 |
| 20260504011021 | 16 | 128 | 3.2 | 4.8 | 0.00 | 0.00 | 0.00 | 56 | 1016.7 |
| 20260504010521 | 16 | 142 | 1.6 | 4.8 | 0.00 | 0.00 | 0.00 | 55 | 1016.7 |
| 20260504010040 | 16 | 102 | 0.0 | 4.8 | 0.00 | 0.00 | 0.00 | 54 | 1016.7 |
| 20260504005524 | 16 | 129 | 1.6 | 4.8 | 0.00 | 0.00 | 0.00 | 52 | 1016.6 |
| 20260504005021 | 16 | 0 | 0.0 | 3.2 | 0.00 | 0.00 | 0.00 | 52 | 1016.7 |
| 20260504004540 | 17 | 0 | 0.0 | 3.2 | 0.00 | 0.00 | 0.00 | 51 | 1016.5 |
| 20260504004024 | 17 | 198 | 0.0 | 3.2 | 0.00 | 0.00 | 0.00 | 50 | 1016.5 |
| 20260504003523 | 17 | 262 | 0.0 | 3.2 | 0.00 | 0.00 | 0.00 | 50 | 1016.5 |
| 20260504003037 | 17 | 194 | 0.0 | 4.8 | 0.00 | 0.00 | 0.00 | 49 | 1016.5 |
| 20260504002523 | 17 | 183 | 1.6 | 4.8 | 0.00 | 0.00 | 0.00 | 48 | 1016.4 |
| 20260504002020 | 17 | 250 | 1.6 | 4.8 | 0.00 | 0.00 | 0.00 | 47 | 1016.4 |
| 20260504001545 | 18 | 200 | 1.6 | 4.8 | 0.00 | 0.00 | 0.00 | 47 | 1016.4 |
| 20260504001020 | 18 | 235 | 0.0 | 3.2 | 0.00 | 0.00 | 0.00 | 46 | 1016.4 |
| 20260504000524 | 18 | 181 | 0.0 | 4.8 | 0.00 | 0.00 | 0.00 | 45 | 1016.4 |
| 20260504000037 | 18 | 0 | 0.0 | 4.8 | 0.00 | 0.00 | 0.00 | 45 | 1016.4 |
| 20260503235527 | 18 | 141 | 1.6 | 11.3 | 0.00 | 0.00 | 0.00 | 44 | 1016.4 |
| 20260503235023 | 18 | 209 | 1.6 | 11.3 | 0.00 | 0.00 | 0.00 | 43 | 1016.4 |
| 20260503234601 | 19 | 199 | 3.2 | 11.3 | 0.00 | 0.00 | 0.00 | 43 | 1016.4 |
| 20260503234023 | 19 | 175 | 1.6 | 4.8 | 0.00 | 0.00 | 0.00 | 42 | 1016.4 |
| 20260503233521 | 19 | 175 | 1.6 | 6.4 | 0.00 | 0.00 | 0.00 | 42 | 1016.4 |
| 20260503233045 | 19 | 87 | 1.6 | 11.3 | 0.00 | 0.00 | 0.00 | 41 | 1016.5 |
| 20260503232523 | 20 | 132 | 3.2 | 11.3 | 0.00 | 0.00 | 0.00 | 41 | 1016.6 |
| 20260503232024 | 20 | 115 | 4.8 | 11.3 | 0.00 | 0.00 | 0.00 | 39 | 1016.6 |
| 20260503231541 | 20 | 215 | 1.6 | 9.7 | 0.00 | 0.00 | 0.00 | 40 | 1016.8 |
| 20260503231028 | 20 | 163 | 3.2 | 9.7 | 0.00 | 0.00 | 0.00 | 39 | 1016.7 |
| 20260503230526 | 20 | 270 | 3.2 | 9.7 | 0.00 | 0.00 | 0.00 | 39 | 1016.7 |
| 20260503230040 | 20 | 328 | 3.2 | 9.7 | 0.00 | 0.00 | 0.00 | 39 | 1016.8 |
| 20260503225521 | 20 | 169 | 3.2 | 8.0 | 0.00 | 0.00 | 0.00 | 38 | 1016.9 |
| 20260503225023 | 20 | 333 | 3.2 | 8.0 | 0.00 | 0.00 | 0.00 | 38 | 1016.8 |
| 20260503224550 | 21 | 285 | 4.8 | 8.0 | 0.00 | 0.00 | 0.00 | 37 | 1017.0 |
| 20260503224021 | 21 | 239 | 3.2 | 8.0 | 0.00 | 0.00 | 0.00 | 37 | 1016.9 |
| 20260503223520 | 21 | 222 | 1.6 | 12.9 | 0.00 | 0.00 | 0.00 | 37 | 1017.0 |
| 20260503223045 | 21 | 301 | 4.8 | 12.9 | 0.00 | 0.00 | 0.00 | 36 | 1016.9 |
| 20260503222520 | 21 | 299 | 4.8 | 8.0 | 0.00 | 0.00 | 0.00 | 36 | 1016.9 |
| 20260503222023 | 21 | 200 | 1.6 | 11.3 | 0.00 | 0.00 | 0.00 | 36 | 1016.9 |
| 20260503221554 | 21 | 261 | 3.2 | 11.3 | 0.00 | 0.00 | 0.00 | 36 | 1016.9 |
| 20260503221020 | 21 | 340 | 3.2 | 16.1 | 0.00 | 0.00 | 0.00 | 35 | 1017.0 |
| 20260503220521 | 21 | 305 | 0.0 | 16.1 | 0.00 | 0.00 | 0.00 | 36 | 1016.9 |
| 20260503220041 | 21 | 335 | 6.4 | 16.1 | 0.00 | 0.00 | 0.00 | 35 | 1017.0 |
| 20260503215523 | 21 | 317 | 3.2 | 12.9 | 0.00 | 0.00 | 0.00 | 35 | 1017.0 |
| 20260503215024 | 21 | 254 | 3.2 | 14.5 | 0.00 | 0.00 | 0.00 | 36 | 1017.1 |
| 20260503214540 | 21 | 291 | 6.4 | 14.5 | 0.00 | 0.00 | 0.00 | 34 | 1017.1 |
| 20260503214020 | 21 | 300 | 3.2 | 9.7 | 0.00 | 0.00 | 0.00 | 33 | 1017.0 |
| 20260503213524 | 21 | 182 | 3.2 | 8.0 | 0.00 | 0.00 | 0.00 | 32 | 1017.1 |
| 20260503213042 | 21 | 150 | 1.6 | 16.1 | 0.00 | 0.00 | 0.00 | 34 | 1017.2 |
| 20260503212525 | 21 | 354 | 4.8 | 16.1 | 0.00 | 0.00 | 0.00 | 32 | 1017.3 |
| 20260503212024 | 21 | 287 | 4.8 | 16.1 | 0.00 | 0.00 | 0.00 | 33 | 1017.4 |
| 20260503211547 | 21 | 298 | 3.2 | 11.3 | 0.00 | 0.00 | 0.00 | 34 | 1017.4 |
| 20260503211023 | 21 | 318 | 1.6 | 9.7 | 0.00 | 0.00 | 0.00 | 32 | 1017.5 |
| 20260503210523 | 21 | 101 | 3.2 | 17.7 | 0.00 | 0.00 | 0.00 | 32 | 1017.6 |
| 20260503210043 | 21 | 283 | 4.8 | 17.7 | 0.00 | 0.00 | 0.00 | 30 | 1017.7 |
| 20260503205524 | 21 | 344 | 4.8 | 17.7 | 0.00 | 0.00 | 0.00 | 32 | 1017.8 |
| 20260503205023 | 21 | 326 | 12.9 | 17.7 | 0.00 | 0.00 | 0.00 | 31 | 1017.8 |
| 20260503204544 | 21 | 17 | 4.8 | 14.5 | 0.00 | 0.00 | 0.00 | 30 | 1017.8 |
| 20260503204022 | 21 | 284 | 4.8 | 12.9 | 0.00 | 0.00 | 0.00 | 30 | 1017.9 |
| 20260503203523 | 21 | 311 | 4.8 | 14.5 | 0.00 | 0.00 | 0.00 | 30 | 1017.9 |
| 20260503203053 | 21 | 282 | 6.4 | 14.5 | 0.00 | 0.00 | 0.00 | 31 | 1018.0 |
| 20260503202524 | 21 | 275 | 4.8 | 17.7 | 0.00 | 0.00 | 0.00 | 33 | 1018.0 |
| 20260503202028 | 21 | 310 | 6.4 | 17.7 | 0.00 | 0.00 | 0.00 | 34 | 1018.0 |
| 20260503201541 | 21 | 338 | 6.4 | 14.5 | 0.00 | 0.00 | 0.00 | 37 | 1018.1 |
| 20260503201022 | 21 | 321 | 4.8 | 12.9 | 0.00 | 0.00 | 0.00 | 36 | 1018.2 |
| 20260503200523 | 21 | 329 | 3.2 | 14.5 | 0.00 | 0.00 | 0.00 | 36 | 1018.3 |
| 20260503200054 | 21 | 241 | 6.4 | 14.5 | 0.00 | 0.00 | 0.00 | 34 | 1018.4 |
| 20260503195524 | 21 | 300 | 3.2 | 12.9 | 0.00 | 0.00 | 0.00 | 38 | 1018.4 |
| 20260503195025 | 21 | 298 | 6.4 | 12.9 | 0.00 | 0.00 | 0.00 | 38 | 1018.7 |
| 20260503194556 | 21 | 214 | 3.2 | 11.3 | 0.00 | 0.00 | 0.00 | 37 | 1018.7 |
| 20260503194023 | 20 | 343 | 1.6 | 6.4 | 0.00 | 0.00 | 0.00 | 38 | 1018.7 |
| 20260503193527 | 20 | 131 | 1.6 | 19.3 | 0.00 | 0.00 | 0.00 | 37 | 1018.8 |
| 20260503193044 | 20 | 359 | 3.2 | 22.5 | 0.00 | 0.00 | 0.00 | 38 | 1018.9 |
| 20260503192524 | 20 | 24 | 11.3 | 22.5 | 0.00 | 0.00 | 0.00 | 36 | 1019.0 |
| 20260503192022 | 20 | 286 | 4.8 | 9.7 | 0.00 | 0.00 | 0.00 | 36 | 1019.2 |
| 20260503191546 | 20 | 293 | 3.2 | 9.7 | 0.00 | 0.00 | 0.00 | 36 | 1019.3 |
| 20260503191023 | 20 | 287 | 3.2 | 11.3 | 0.00 | 0.00 | 0.00 | 39 | 1019.4 |
| 20260503190519 | 19 | 224 | 3.2 | 11.3 | 0.00 | 0.00 | 0.00 | 39 | 1019.6 |
| 20260503190041 | 19 | 257 | 4.8 | 11.3 | 0.00 | 0.00 | 0.00 | 39 | 1019.6 |
| 20260503185522 | 19 | 0 | 3.2 | 14.5 | 0.00 | 0.00 | 0.00 | 38 | 1019.7 |
| 20260503185023 | 19 | 255 | 4.8 | 14.5 | 0.00 | 0.00 | 0.00 | 39 | 1019.7 |
| 20260503184541 | 19 | 287 | 3.2 | 12.9 | 0.00 | 0.00 | 0.00 | 37 | 1019.8 |
| 20260503184023 | 19 | 2 | 4.8 | 12.9 | 0.00 | 0.00 | 0.00 | 39 | 1019.7 |
| 20260503183523 | 19 | 324 | 4.8 | 11.3 | 0.00 | 0.00 | 0.00 | 40 | 1019.9 |
| 20260503183040 | 19 | 341 | 4.8 | 11.3 | 0.00 | 0.00 | 0.00 | 37 | 1019.8 |
| 20260503182521 | 19 | 310 | 1.6 | 8.0 | 0.00 | 0.00 | 0.00 | 41 | 1019.8 |
| 20260503182022 | 18 | 171 | 3.2 | 8.0 | 0.00 | 0.00 | 0.00 | 37 | 1019.9 |
| 20260503181542 | 18 | 0 | 1.6 | 16.1 | 0.00 | 0.00 | 0.00 | 39 | 1020.1 |
| 20260503181021 | 18 | 355 | 6.4 | 16.1 | 0.00 | 0.00 | 0.00 | 38 | 1020.2 |
| 20260503180522 | 18 | 355 | 3.2 | 8.0 | 0.00 | 0.00 | 0.00 | 40 | 1020.1 |
| 20260503180045 | 18 | 317 | 3.2 | 8.0 | 0.00 | 0.00 | 0.00 | 40 | 1020.2 |
| 20260503175522 | 18 | 309 | 3.2 | 8.0 | 0.00 | 0.00 | 0.00 | 39 | 1020.2 |
| 20260503175024 | 18 | 316 | 1.6 | 8.0 | 0.00 | 0.00 | 0.00 | 43 | 1020.3 |
| 20260503174543 | 18 | 333 | 1.6 | 8.0 | 0.00 | 0.00 | 0.00 | 39 | 1020.3 |
| 20260503174022 | 17 | 93 | 3.2 | 6.4 | 0.00 | 0.00 | 0.00 | 41 | 1020.5 |
| 20260503173523 | 17 | 0 | 1.6 | 4.8 | 0.00 | 0.00 | 0.00 | 41 | 1020.5 |
| 20260503173041 | 17 | 37 | 1.6 | 12.9 | 0.00 | 0.00 | 0.00 | 40 | 1020.7 |
| 20260503172522 | 17 | 80 | 3.2 | 12.9 | 0.00 | 0.00 | 0.00 | 44 | 1020.8 |
| 20260503172023 | 17 | 12 | 3.2 | 12.9 | 0.00 | 0.00 | 0.00 | 42 | 1020.8 |
| 20260503171546 | 17 | 4 | 3.2 | 12.9 | 0.00 | 0.00 | 0.00 | 42 | 1020.8 |
| 20260503171026 | 17 | 338 | 4.8 | 14.5 | 0.00 | 0.00 | 0.00 | 46 | 1020.8 |
| 20260503170523 | 17 | 302 | 6.4 | 14.5 | 0.00 | 0.00 | 0.00 | 44 | 1020.9 |
| 20260503150522 | 15 | 281 | 1.6 | 8.0 | 0.00 | 0.00 | 0.00 | 52 | 1021.8 |
| 20260503131025 | 8 | 7 | 4.8 | 14.5 | 0.00 | 0.00 | 0.00 | 86 | 1021.4 |
| 20260503130523 | 8 | 31 | 3.2 | 9.7 | 0.00 | 0.00 | 0.00 | 89 | 1021.3 |
| 20260503110524 | 4 | 127 | 0.0 | 3.2 | 0.00 | 0.00 | 0.00 | 88 | 1020.5 |